Погода в Казачьем

Россия / Республика Саха (Якутия)     70°44′40″N   136°12′29″E
темп.,
°C
ветер,
м/с
пор.,
м/с
влажн.,
%
обл.,
%
осадки,
мм/ч
давл.,
гПа
погр.,
м
24 октября, вс
вс2401:00−25юз229944 0.0 101212
04:00−26ю1110033 0.0 10119
07:00−26юв2210089 0.0 100919
10:00−23вюв3499100 0.0 100780
13:00−20в3597100 0.0 1005131
16:00−19в3697100 0.1 1004131
19:00−19всв3596100 0.1 1003146
22:00−18всв3597100 0.2 1003151
25 октября, пн
пн2501:00−18всв2497100 0.3 1003138
04:00−18всв2397100 0.4 1003134
07:00−18всв239789 0.1 100393
10:00−19всв349889 0.2 100484
13:00−19всв339682 0.1 1004111
16:00−19всв349786 0.1 1004105
19:00−20всв239876 0.1 100584
22:00−20всв229961 0.1 100641
26 октября, вт
вт2601:00−17всв239887 0.1 100459
04:00−17в239785 0.2 100572
07:00−17в239874 0.1 100651
10:00−17в239794 0.2 100661
13:00−16в239693 0.1 100695
16:00−16всв229796 0.2 100733
19:00−16всв239792 0.1 100861
22:00−17всв229873 0.2 100935
27 октября, ср
ср2701:00−18всв229877 0.1 101033
04:00−17всв229868 0.1 101124
07:00−20в1110075 0.1 101313
10:00−21в1210078 0.1 101413
13:00−19вюв229869 0.1 101463
16:00−19вюв239887 0.1 101462
19:00−19вюв349879 0.1 101554
22:00−18в359799 0.2 1014121
28 октября, чт
чт2801:00−17в359781 0.1 1014137
04:00−19в349982 0.2 101365
07:00−18вюв3598100 0.0 101296
10:00−18в3697100 0.1 1011133
13:00−16в359574 0.2 1009150
16:00−18в3698100 0.2 100883
19:00−16в3597100 0.0 1007112
22:00−15в3496100 0.3 1006117